Flag for Portugal Weather past 2 weeks in Amadora, Portugal

Now
66 °F

Passing clouds.


Feels Like: 66 °F
Forecast: 64 / 81 °F
Wind: 8 mph from North

Location: Lisbon Portela Airport

Current Time: Jul 8, 2015 at 12:10:22 AM

Latest Report: Jul 7, 2015 at 11:30 PM


Visibility: N/A

Pressure: 30.09 "Hg

Humidity: 83%

Dew point: 61 °F

Location of AmadoraLocation

Historic Weather in Amadora — Graph

°F

Amadora temperature yesterday

Maximum temperature yesterday: 84 °F (at 2:00 PM)
Minimum temperature yesterday: 63 °F (at 5:30 AM)
Average temperature yesterday: 72 °F

Past Weeks' High & Low Weather Summary

 TemperatureHumidityPressure
High95 °F (Jun 27, 3:00 PM)94% (Jun 24, 5:00 AM)30.18 "Hg (Jun 24, 5:00 AM)
Low59 °F (Jun 24, 5:00 AM)15% (Jun 29, 5:30 PM)29.95 "Hg (Jun 29, 6:30 PM)
Average71 °F64%30.08 "Hg
* Reported Jun 22 11:00 PM — Jul 7 11:00 PM, Amadora, Weather by CustomWeather, © 2015

Note: Actual official high and low records may vary slightly from our data, if they occured in-between our weather recording intervals... More about our weather records

Advertising

Amadora weather history for previous 24 hours

 ConditionsComfort  
Time TempWeatherWind HumidityBarometerVisibility
11:00 PM
Tue, Jul 7
66 °FPassing clouds.9 mph88%30.09 "HgN/A
10:30 PM66 °FPassing clouds.12 mph83%30.09 "HgN/A
10:00 PM66 °FPassing clouds.16 mph88%30.07 "HgN/A
9:30 PM68 °FPassing clouds.18 mph83%30.07 "HgN/A
9:00 PM68 °FPassing clouds.16 mph83%30.07 "HgN/A
8:30 PM70 °FPassing clouds.17 mph78%30.07 "HgN/A
8:00 PM72 °FPassing clouds.16 mph73%30.07 "HgN/A
7:30 PM73 °FPassing clouds.14 mph65%30.07 "HgN/A
7:00 PM77 °FPassing clouds.16 mph57%30.04 "HgN/A
6:30 PM77 °FPassing clouds.15 mph57%30.07 "HgN/A
6:00 PM77 °FPassing clouds.21 mph57%30.07 "HgN/A
5:30 PM79 °FPassing clouds.16 mph54%30.07 "HgN/A
5:00 PM81 °FPassing clouds.15 mph51%30.07 "HgN/A
4:30 PM82 °FPassing clouds.16 mph48%30.07 "HgN/A
4:00 PM82 °FPassing clouds.15 mph48%30.07 "HgN/A
3:30 PM82 °FPassing clouds.14 mph48%30.07 "HgN/A
3:00 PM82 °FPassing clouds.15 mph48%30.07 "HgN/A
2:30 PM84 °FPassing clouds.16 mph43%30.07 "HgN/A
2:00 PM84 °FPassing clouds.15 mph45%30.07 "HgN/A
1:30 PM82 °FSunny.16 mph45%30.09 "Hg10 mi
1:00 PM81 °FSunny.14 mph51%30.09 "Hg10 mi
12:30 PM81 °FPassing clouds.14 mph51%30.09 "HgN/A
12:00 PM81 °FPassing clouds.13 mph51%30.09 "HgN/A
11:30 AM79 °FSunny.14 mph54%30.09 "Hg10 mi
11:00 AM77 °FPassing clouds.14 mph57%30.09 "HgN/A
10:30 AM75 °FSunny.14 mph61%30.09 "Hg10 mi
10:00 AM73 °FSunny.14 mph65%30.09 "Hg10 mi
9:30 AM72 °FPassing clouds.13 mph69%30.09 "HgN/A
9:00 AM68 °FPassing clouds.13 mph78%30.09 "HgN/A
8:30 AM68 °FPassing clouds.10 mph73%30.07 "HgN/A
8:00 AM66 °FPassing clouds.7 mph78%30.07 "HgN/A
7:30 AM64 °FPassing clouds.10 mph83%30.07 "HgN/A
7:00 AM63 °FClear.9 mph83%30.07 "Hg10 mi
6:30 AM63 °FPassing clouds.7 mph83%30.07 "HgN/A
6:00 AM63 °FClear.10 mph83%30.04 "Hg10 mi
5:30 AM63 °FClear.13 mph83%30.04 "Hg10 mi
5:00 AM64 °FClear.12 mph68%30.04 "Hg10 mi
4:30 AM64 °FPassing clouds.7 mph60%30.04 "HgN/A
4:00 AM64 °FClear.9 mph60%30.04 "Hg10 mi
3:30 AM64 °FClear.9 mph60%30.04 "Hg10 mi
3:00 AM64 °FClear.9 mph56%30.04 "Hg10 mi
2:30 AM64 °FClear.9 mph60%30.07 "Hg10 mi
2:00 AM64 °FPassing clouds.7 mph64%30.07 "HgN/A
1:30 AM64 °FPassing clouds.6 mph68%30.07 "HgN/A
1:00 AM64 °FPassing clouds.3 mph68%30.07 "HgN/A
12:30 AM64 °FPassing clouds.9 mph68%30.07 "HgN/A
12:00 AM64 °FClear.10 mph68%30.07 "Hg10 mi
Weather by CustomWeather, © 2015

See weather overviewHow to use our weather pages